Hourly Data Report for November 21, 2019

All times are specified in Local Standard Time (LST). Add 1 hour to adjust for Daylight Saving Time where and when it is observed.

PINAWA
MANITOBA
Current Station Operator: ECCC - MSC

50°10'38.020" N
96°03'53.000" W
268.00 m
503B1ER
71448
WEA

Download Data

Hourly Data (November 2019)
Hourly Data Report for November 21, 2019
TIME Temp Definition
°C
Dew Point Definition
°C
Rel Hum Definition
%
Wind Dir Definition
10's deg

Wind Spd Definition
km/h
Visibility Definition
km
Stn Press Definition
kPa
Hmdx Definition


Wind Chill Definition


Weather Definition


00:00 -8.9 LegendMM LegendMM 35 16   98.76   -16 LegendNANA
01:00 -9.7 LegendMM LegendMM 35 17   98.76   -17 LegendNANA
02:00 -9.8 LegendMM LegendMM 35 8   98.69   -14 LegendNANA
03:00 -9.5 LegendMM LegendMM 33 10   98.71   -15 LegendNANA
04:00 -9.4 LegendMM LegendMM 33 11   98.72   -15 LegendNANA
05:00 -8.9 LegendMM LegendMM 33 11   98.73   -14 LegendNANA
06:00 -8.8 LegendMM LegendMM 35 15   98.74   -15 LegendNANA
07:00 -8.9 LegendMM LegendMM 34 14   98.76   -15 LegendNANA
08:00 -9.0 LegendMM LegendMM 32 13   98.79   -15 LegendNANA
09:00 -9.0 LegendMM LegendMM 32 11   98.82   -14 LegendNANA
10:00 -8.7 LegendMM LegendMM 33 15   98.85   -15 LegendNANA
11:00 -8.7 LegendMM LegendMM 30 14   98.82   -15 LegendNANA
12:00 -8.5 LegendMM LegendMM 31 18   98.81   -16 LegendNANA
13:00 -8.3 LegendMM LegendMM 31 18   98.82   -15 LegendNANA
14:00 -8.1 LegendMM LegendMM 32 15   98.80   -14 LegendNANA
15:00 -8.3 LegendMM LegendMM 31 14   98.83   -14 LegendNANA
16:00 -8.6 LegendMM LegendMM 30 10   98.82   -14 LegendNANA
17:00 -9.4 LegendMM LegendMM 27 5   98.89   -12 LegendNANA
18:00 -10.6 LegendMM LegendMM 21 3   98.86   -12 LegendNANA
19:00 -11.1 LegendMM LegendMM 23 5   98.88   -14 LegendNANA
20:00 -11.6 LegendMM LegendMM 21 5   98.84   -15 LegendNANA
21:00 -11.5 LegendMM LegendMM 18 5   98.81   -15 LegendNANA
22:00 -12.0 LegendMM LegendMM 17 7   98.74   -16 LegendNANA
23:00 -12.3 LegendMM LegendMM 18 8   98.66   -17 LegendNANA

Notes on Data Quality.

Legend

  • E = Estimated
  • M = Missing
  • NA = Not Available
Date modified: